カタログに戻る

OPS 1920

運用中軍事PO
NORAD 2481·PAYLOAD·🇺🇸 United States

打ち上げ Oct 5, 1966 から Vandenberg Space Force Base

Loading…

次のパス (今後24時間)

TLE

最新Source: Space-Track

元期: Sep 14, 2026, 07:22 UTC

1 02481U 66089A   26257.30708987 -.00000006  00000-0 -36898-2 0  9992
2 02481  89.8569  30.8794 0032353 230.4307 129.3684  8.59256962880324

AllMySatでOPS 1920をリアルタイム追跡

Download on the App Store